Weather History for KMBS - July, 2014

Change the Weather History Date:

Tuesday, July 15, 2014

  Actual Average Record
Temperature  
Mean Temperature 62 °F 71 °F  
Max Temperature 69 °F 82 °F 94 °F (1998)
Min Temperature 55 °F 60 °F 52 °F (2007)
Degree Days  
Heating Degree Days 3    
Month to date heating degree days 6  
Since 1 June heating degree days 20  
Since 1 July heating degree days 6  
Cooling Degree Days 0    
Month to date cooling degree days 68  
Year to date cooling degree days 273  
Since 1 June cooling degree days 229  
Growing Degree Days 13 (Base 50)    
Moisture  
Dew Point 54 °F    
Average Humidity 74    
Maximum Humidity 93    
Minimum Humidity 55    
Precipitation  
Precipitation 0.13 in 0.08 in 0.16 in (2000)
Month to date precipitation 2.94 1.21  
Year to date precipitation 16.90 15.84  
Snow  
Snow 0.00 in - - ()
Month to date snowfall 0.0  
Since 1 June snowfall 0.0  
Since 1 July snowfall 0.0  
Snow Depth 0.00 in    
Sea Level Pressure  
Sea Level Pressure 29.78 in    
Wind  
Wind Speed 12 mph (WNW)    
Max Wind Speed 23 mph    
Max Gust Speed 29 mph    
Visibility 10 miles    
Events Rain , Thunderstorm    
T = Trace of Precipitation, MM = Missing Value Source: NWS Daily Summary

Daily Weather History Graph

Daily Weather History Graph

Search for Another Location

Airport or City:

Trip Planner

Search our weather history database for the weather conditions in past years. The results will help you decide how hot, cold, wet, or windy it might be!

Date:

Astronomy

Jul. 15, 2014 Rise Set
Actual Time 6:09 AM EDT 9:15 PM EDT
Civil Twilight 5:34 AM EDT 9:49 PM EDT
Nautical Twilight 4:50 AM EDT 10:33 PM EDT
Astronomical Twilight 3:56 AM EDT 11:26 PM EDT
Moon 11:12 PM EDT (7/15) 10:10 AM EDT (7/15)
Length of Visible Light 16h 15m
Length of Day
15h 06m
Waning Gibbous, 85% of the Moon is Illuminated
Jul 15
Waning Gibbous
Jul 18
Last Quarter
Jul 26
New
Aug 3
First Quarter
Aug 10
Full

Hourly Weather History & Observations

Time (EDT) Temp. Dew Point Humidity Pressure Visibility Wind Dir Wind Speed Gust Speed Precip Events Conditions
12:53 AM 63.0 °F 57.9 °F 84% 29.75 in 10.0 mi West 4.6 mph - N/A   Partly Cloudy
1:53 AM 63.0 °F 55.9 °F 78% 29.75 in 10.0 mi NW 10.4 mph - N/A   Scattered Clouds
2:53 AM 62.1 °F 55.9 °F 80% 29.73 in 10.0 mi Calm Calm - N/A   Mostly Cloudy
3:53 AM 62.1 °F 55.9 °F 80% 29.74 in 10.0 mi West 13.8 mph - N/A   Overcast
4:11 AM 61.0 °F 55.9 °F 83% 29.75 in 10.0 mi West 15.0 mph - N/A   Overcast
4:37 AM 59.0 °F 55.0 °F 87% 29.74 in 7.0 mi WNW 15.0 mph - 0.08 in Rain Heavy Rain
4:53 AM 59.0 °F 55.9 °F 90% 29.73 in 10.0 mi WNW 8.1 mph - 0.10 in Rain Light Rain
5:53 AM 59.0 °F 55.0 °F 87% 29.71 in 10.0 mi WNW 8.1 mph - 0.00 in   Scattered Clouds
6:53 AM 57.9 °F 55.0 °F 90% 29.73 in 10.0 mi West 9.2 mph - N/A   Partly Cloudy
7:45 AM 59.0 °F 55.9 °F 90% 29.74 in 10.0 mi West 8.1 mph - N/A   Mostly Cloudy
7:53 AM 60.1 °F 55.9 °F 86% 29.73 in 10.0 mi West 8.1 mph - N/A   Mostly Cloudy
8:53 AM 62.1 °F 55.9 °F 80% 29.74 in 10.0 mi West 10.4 mph - N/A   Mostly Cloudy
9:00 AM 64.0 °F 57.0 °F 78% 29.75 in 10.0 mi West 10.4 mph - N/A   Mostly Cloudy
9:33 AM 64.0 °F 55.9 °F 75% 29.75 in 10.0 mi West 12.7 mph - N/A   Mostly Cloudy
9:53 AM 64.9 °F 55.9 °F 73% 29.75 in 10.0 mi West 12.7 mph - N/A   Mostly Cloudy
10:18 AM 64.0 °F 55.0 °F 73% 29.75 in 10.0 mi West 15.0 mph - N/A   Overcast
10:25 AM 64.9 °F 55.9 °F 73% 29.75 in 10.0 mi West 18.4 mph - N/A   Overcast
10:48 AM 62.6 °F 55.4 °F 77% 29.75 in 6.0 mi WSW 16.1 mph - 0.03 in Rain Rain
10:53 AM 61.0 °F 57.0 °F 87% 29.75 in 6.0 mi West 12.7 mph - 0.03 in Rain Light Rain
11:04 AM 61.0 °F 57.0 °F 87% 29.76 in 10.0 mi West 12.7 mph - 0.00 in Rain , Thunderstorm Light Rain
11:24 AM 64.0 °F 57.9 °F 80% 29.76 in 10.0 mi West 13.8 mph - 0.00 in   Scattered Clouds
11:53 AM 63.0 °F 55.9 °F 78% 29.76 in 10.0 mi West 15.0 mph - 0.00 in   Mostly Cloudy
12:53 PM 64.0 °F 53.1 °F 67% 29.76 in 10.0 mi NW 16.1 mph - N/A   Mostly Cloudy
1:53 PM 66.9 °F 53.1 °F 61% 29.77 in 10.0 mi NW 20.7 mph 25.3 mph 0.00 in   Mostly Cloudy
2:25 PM 69.1 °F 52.0 °F 54% 29.79 in 10.0 mi WNW 16.1 mph - N/A   Scattered Clouds
2:53 PM 68.0 °F 52.0 °F 56% 29.79 in 10.0 mi WNW 17.3 mph 24.2 mph N/A   Scattered Clouds
3:53 PM 66.0 °F 51.1 °F 59% 29.80 in 10.0 mi NW 16.1 mph - N/A   Mostly Cloudy
4:53 PM 66.9 °F 51.1 °F 57% 29.80 in 10.0 mi WNW 13.8 mph - N/A   Overcast
5:53 PM 64.0 °F 52.0 °F 65% 29.81 in 10.0 mi WNW 13.8 mph - N/A   Overcast
6:53 PM 66.0 °F 52.0 °F 60% 29.82 in 10.0 mi West 16.1 mph 27.6 mph N/A   Mostly Cloudy
7:53 PM 64.0 °F 53.1 °F 67% 29.83 in 10.0 mi WNW 12.7 mph - N/A   Scattered Clouds
8:53 PM 63.0 °F 52.0 °F 67% 29.85 in 10.0 mi NW 13.8 mph - N/A   Overcast
9:53 PM 61.0 °F 52.0 °F 72% 29.87 in 10.0 mi WNW 13.8 mph - N/A   Mostly Cloudy
10:32 PM 60.1 °F 52.0 °F 75% 29.89 in 10.0 mi WNW 9.2 mph 21.9 mph N/A   Mostly Cloudy
10:49 PM 59.0 °F 51.8 °F 77% 29.89 in 10.0 mi WNW 10.4 mph - N/A   Mostly Cloudy
10:53 PM 57.9 °F 51.1 °F 78% 29.89 in 10.0 mi WNW 10.4 mph - N/A   Scattered Clouds
11:53 PM 57.0 °F 50.0 °F 77% 29.90 in 10.0 mi WNW 8.1 mph - N/A   Scattered Clouds